Lid_Strength_Index
-1 0 0 -0 -0 0 -0 -0 -1 -1 -2 -2 -1 -1 -2 -1 -0 -1 -1 -1 -1 0
-0 -0 -0 -1 -1 -0 -1 -0 -1 -1 -1 -1 -1 -1 -2 -0 -1 -1 -1 -1 -1 -0
-0 -1 -1 -0 -1 -1 -0 -1 -1 -1 -1 -1 -1 -1 -1 -1 -1 -1 -0 -0 -1 -1
-0 -0 -0 -0 -1 -1 -1 -1 -1 -1 -1 -1 -1 -1 -1 -1 -1 -0 -1 -1 -0 -0
-0 -0 -0 -0 -0 -1 -1 -1 -1 -1 -1 -1 -1 -1 -1 -0 -0 -0 0 -0 -0 -0
0 0 0 -0 -1 -1 -1 -1 -1 -1 -0 -1 -1 -1 -1 -1 -0 -0 -0 -0 -0 0
0 0 0 -0 -0 -1 -1 -1 -1 -1 -1 -1 -1 -1 -0 -1 -0 -0 -0 -0 -0 -0
0 -0 -0 -0 -0 -0 -1 -0 -1 -1 -0 -1 -0 -0 -0 -1 -0 -0 0 -0 -0 -0
0 0 -0 -0 -0 -0 -0 -0 -1 -0 -0 -0 -0 4 3 1 -0 -0 0 0 -0 -0
0 1 0 -0 -0 0 0 -0 -0 -0 -0 -0 -0 7 5 4 -0 -0 -0 0 0 0
0 1 0 0 1 0 -0 0 0 -0 -0 -0 4 8 7 5 -0 -0 -0 -0 -0 -0
1 1 1 1 1 0 0 0 0 0 1 1 4 7 6 4 -0 -0 -0 -0 -0 0
1 1 1 1 0 1 0 1 0 3 3 6 3 8 7 4 0 1 0 -1 0 6
0 0 0 0 0 0 1 1 3 5 5 5 7 6 9 7 0 1 1 1 4 6